Location: *
(45.8000°S, 170.6667°W)
Time: 18:03:33
(UTC+00:00)

Daily predictions for brighter satellites

Satellite Brightness Start Highest point End
(mag) Time Altitude Azimuth Time Altitude Azimuth Time Altitude Azimuth
SL-16 R/B 3.7 13:27:25 10° SSE 13:32:14 37° ESE 13:32:14 37° ESE
Cosmos 1092 Rocket 4.5 13:53:19 10° S 13:58:52 57° SE 13:58:52 57° SE
H-2A R/B 4.1 14:14:26 10° SSE 14:16:21 25° SSE 14:16:21 25° SSE
MSX 4.0 14:21:00 68° SE 14:21:00 68° SE 14:26:25 10° S
ATLAS 2AS CENTAUR R/B 4.5 14:30:42 14° SSW 14:32:40 16° SSW 14:36:34 10° SSE
Meteor 1-27 Rocket 4.2 14:29:22 10° S 14:35:14 62° ESE 14:41:08 10° NNE
IDEFIX/ARIANE 42P 4.2 14:38:51 23° SSW 14:38:51 23° SSW 14:40:47 10° SSW
Cosmos 1241 Rocket 4.4 14:35:36 79° NNE 14:35:52 81° ENE 14:42:17 10° SE
Cosmos 1680 Rocket 4.5 14:36:43 10° SSW 14:41:56 47° ESE 14:47:05 10° NE
USA 234 4.1 14:36:12 10° ESE 14:42:21 40° NE 14:44:40 31° N
Cosmos 1634 Rocket 3.9 14:43:58 68° N 14:44:51 89° W 14:51:14 10° S
PAYLOAD A 4.4 14:46:15 51° S 14:46:15 51° S 14:50:04 10° SSW
Cosmos 1697 Rocket 4.2 14:47:14 10° SSW 14:52:28 36° SE 14:57:38 10° ENE
Cosmos 1633 Rocket 4.4 14:57:05 30° SSW 14:57:05 30° SSW 14:59:32 10° S
CZ-2C R/B 2.5 14:54:53 39° NNE 14:56:54 87° ESE 15:02:12 10° SSW
Iridium 4 Rocket 3.8 14:50:58 10° S 14:57:00 80° E 15:00:32 25° N
SJ 16-02 3.8 14:54:18 10° NE 14:57:35 21° E 15:00:52 10° SE
SL-08 R/B 3.3 14:52:39 10° SSE 14:57:41 88° WSW 14:57:47 86° NW
CZ-4B R/B 3.1 14:55:52 10° SSE 14:58:11 32° ESE 14:58:11 32° ESE
Cosmos 1655 Rocket 4.4 14:54:54 10° S 15:01:14 65° ESE 15:07:28 10° NNE
Cosmos 2026 Rocket 3.8 14:57:31 10° SSW 15:03:36 65° W 15:04:47 53° NW
Okean 1-7 4.4 15:02:17 10° S 15:06:26 39° ESE 15:10:34 10° NE
CZ-4B R/B 4.3 15:08:48 10° NE 15:13:49 43° ESE 15:18:53 10° S
ALOS 4.2 15:09:56 10° NE 15:14:00 30° ESE 15:18:07 10° S
SL-16 R/B 3.0 15:11:07 10° S 15:16:50 39° WSW 15:17:20 38° WSW
Cosmos 2082 Rocket 3.7 15:15:55 10° NNE 15:21:00 34° ENE 15:26:05 10° SE
CZ-4B R/B 4.1 15:27:33 28° SW 15:27:33 28° SW 15:29:41 10° SSW
Milstar 3 4.3 15:25:17 17° NNW 15:25:43 17° NNW 15:29:52 10° NNE
PSLV R/B 3.5 15:25:02 36° N 15:26:32 85° WNW 15:30:21 10° SSW
Cosmos 1980 Rocket 3.7 15:22:08 10° SSW 15:27:26 38° SE 15:32:40 10° ENE
COSMOS 2406 3.2 15:27:08 39° NW 15:29:19 71° WSW 15:35:05 10° SSE
SL-24 DEB 4.1 15:26:47 10° S 15:31:32 86° W 15:35:26 15° N
CZ-4B DEB 4.1 15:31:49 10° NNE 15:37:20 85° WNW 15:42:54 10° SSW
USA 229 DEB 3.6 15:31:28 10° SW 15:38:28 87° WNW 15:45:06 10° NE
USA 229 3.6 15:31:33 10° SW 15:38:33 88° NW 15:45:11 10° NE
USA 81 4.3 15:36:08 10° SSW 15:41:14 47° W 15:45:07 17° NNW
Cosmos 158 Rocket 4.1 15:37:31 10° SSW 15:42:29 72° ESE 15:47:25 10° NNE
Landsat 5 4.2 15:39:02 10° S 15:42:20 33° WSW 15:42:20 33° WSW
NOSS 3-1 (A) 3.8 15:37:29 10° SW 15:44:04 64° SE 15:49:41 10° NE
Cosmos 2242 Rocket 4.1 15:40:43 10° SSW 15:45:01 38° W 15:45:33 36° WNW
NOAA 6 4.4 15:40:35 10° NNE 15:45:45 69° ESE 15:50:59 10° S
Cosmos 2278 3.9 15:40:22 10° SSW 15:46:09 73° ESE 15:51:50 10° NNE
Radarsat Rocket 4.5 15:41:04 10° NNE 15:47:27 66° ESE 15:53:22 10° SSW
Okean O Rocket 1.7 15:44:29 10° NNE 15:48:57 81° ESE 15:53:27 10° SSW
Cosmos 1933 Rocket 4.1 15:48:28 35° W 15:49:14 38° WSW 15:53:26 10° S
Meteor 2-13 Rocket 4.4 15:48:03 10° SSW 15:54:11 72° W 16:00:17 10° N
H-2A R/B 4.1 15:52:03 10° SSW 15:53:28 13° SW 15:53:28 13° SW
Cosmos 2112 Rocket 4.1 15:49:14 10° SSW 15:54:30 53° WNW 15:59:43 10° N
PAYLOAD B 4.2 15:50:10 10° N 15:55:44 67° WNW 16:01:21 10° SSW
Cosmos 1689 Rocket 2.3 15:53:56 10° S 15:56:58 51° WSW 15:57:36 42° WNW
ERBS 2.8 15:57:21 36° WSW 15:58:12 44° SSW 16:01:32 10° SE
Cosmos 1703 Rocket 3.8 15:54:17 10° SSW 15:58:41 49° W 16:03:02 10° NNW
Cosmos 1898 Rocket 3.5 15:57:02 11° NNW 16:02:07 75° WSW 16:07:33 10° SSE
Meteor 1-28 Rocket 3.3 16:03:18 10° S 16:07:01 53° WSW 16:10:16 13° NNW
Cosmos 1484 Rocket 3.0 16:04:50 10° N 16:08:27 43° W 16:12:09 10° SSW
Cosmos 2266 Rocket 4.0 16:03:08 10° SSW 16:09:32 62° W 16:15:46 10° N
Cosmos 1833 Rocket 2.7 16:04:00 10° NNW 16:09:39 73° WSW 16:15:22 10° SSE
OE (NEXTSAT) 4.3 16:07:53 27° W 16:09:42 86° S 16:13:17 10° E
Cosmos 1937 Rocket 3.4 16:04:32 10° NNW 16:09:43 86° WSW 16:14:59 10° SSE
Okean 1 3.2 16:07:38 10° SSW 16:11:46 78° W 16:15:47 10° N
Cosmos 972 Rocket 4.4 16:08:00 10° NNW 16:13:46 87° WSW 16:20:22 10° SSE
CZ-4C R/B 3.2 16:09:28 10° NNW 16:17:32 74° NE 16:24:32 10° SE
NOSS 3-1 (C) 3.4 16:13:33 10° SW 16:19:44 54° WNW 16:25:07 10° NNE
Cosmos 1656 4.3 16:15:57 10° SW 16:20:51 32° WNW 16:25:45 10° NNW
Meteor 1-25 Rocket 4.3 16:15:59 10° NNW 16:21:29 57° WSW 16:27:03 10° S
Meteor 1-14 Rocket 4.3 16:16:15 10° NNW 16:22:00 76° WSW 16:27:59 10° S
Cosmos 1680 Rocket 4.4 16:19:22 10° SW 16:23:46 26° W 16:28:07 10° NNW
USA 234 3.3 16:19:03 10° SE 16:25:37 71° SSW 16:32:02 11° WNW
Helios 1A Rocket 3.8 16:22:29 10° NNW 16:26:10 29° W 16:29:53 10° SW
Cosmos 1869 Rocket 4.0 16:22:02 10° NNW 16:26:16 42° WSW 16:30:32 10° S
CZ-4B R/B 3.2 16:29:20 10° SSW 16:31:04 14° WSW 16:31:30 13° WSW
Feng Yun 1-1 Rocket 4.4 16:26:40 10° NNE 16:32:17 81° ESE 16:37:50 10° SSW
Cosmos 2322 Rocket 3.9 16:27:52 10° SSW 16:33:09 35° SE 16:38:23 10° ENE
FENGYUN 3A 3.8 16:28:19 10° N 16:33:39 55° W 16:39:05 10° SSW
NOSS 2-3 (C) 4.4 16:26:37 10° SW 16:33:44 89° SE 16:39:08 10° NE
CZ-2C R/B 4.2 16:34:14 12° WNW 16:35:48 13° W 16:38:18 10° WSW
SJ 16-02 1.8 16:31:39 10° NW 16:35:51 42° WSW 16:40:06 10° S
Cosmos 1697 Rocket 3.1 16:31:13 10° SW 16:36:29 40° WNW 16:41:41 10° N
Okean 3 3.4 16:34:09 10° SSW 16:38:28 73° W 16:42:40 10° N
Cosmos 2150 Rocket 4.3 16:35:11 10° NNW 16:40:34 79° ENE 16:45:57 10° SSE
Okean-O 3.5 16:36:26 10° NNE 16:40:49 56° ESE 16:45:16 10° S
Okean 1-7 4.3 16:40:29 10° SW 16:43:43 20° W 16:46:58 10° NW
AQUARIUS 4.5 16:39:24 10° NNE 16:43:55 75° ESE 16:48:30 10° S
Cosmos 2369 4.4 16:39:14 10° SW 16:44:16 32° WNW 16:49:14 10° NNW
Cosmos 372 Rocket 4.2 16:42:22 10° NNW 16:47:30 79° ENE 16:52:40 10° SSE
FALCON 9 R/B 4.4 16:42:33 10° NNW 16:47:37 29° NE 17:00:48 10° E
Cosmos 1867 4.0 16:42:39 10° SW 16:47:43 41° WNW 16:52:46 10° N
Lacrosse 4 Rocket 3.5 16:44:27 10° SSW 16:48:28 30° SE 16:52:29 10° ENE
ALOS 2.9 16:47:05 10° NNW 16:51:21 33° W 16:55:40 10° SSW
Cosmos 1500 3.8 16:48:14 10° N 16:52:03 64° E 16:55:57 10° SSE
CZ-4B R/B 4.0 16:50:00 10° NNW 16:54:32 28° W 16:59:07 10° SW
Cosmos 2298 Rocket 4.0 16:49:25 10° NNW 16:54:44 74° WSW 17:00:07 10° SSE
